When you browse on this site, cookies collect data to enhance your experience and personalize the content and advertising you see.
Visit our Privacy Policy to learn more. By continuing to use the site, you agree to this use of cookies and data.
  • în România
  • Lista ţărilor
  • Pe 7 zile
  • Temperatura apei
  • Meteo pe hartă
  • Widget-uri
  • user-avatar
    Intrare

    Meteo pe oră la Saurimo

    Astăzi, 22 Noiembrie, Vineri

    Timp Temperatura Precipitaţii Vânt Presiune Umiditate
    00:00 +20°C° 0 mm 1 m/s 669 mmHg 92%
    01:00 +20°C° 0 mm 1 m/s 669 mmHg 93%
    02:00 +20°C° 0 mm 1 m/s 668 mmHg 94%
    03:00 +19°C° 0 mm 1 m/s 668 mmHg 95%
    04:00 +19°C° 0 mm 1 m/s 668 mmHg 97%
    05:00 +20°C° 0 mm 1 m/s 669 mmHg 95%
    06:00 +21°C° 0 mm 1 m/s 669 mmHg 92%
    07:00 +21°C° 0 mm 2 m/s 670 mmHg 91%
    08:00 +24°C° 0.1 mm 1 m/s 670 mmHg 84%
    09:00 +26°C° 0.1 mm 1 m/s 671 mmHg 78%
    10:00 +28°C° 0.1 mm 1 m/s 671 mmHg 71%
    11:00 +29°C° 0.1 mm 1 m/s 670 mmHg 67%
    12:00 +29°C° 0.1 mm 2 m/s 670 mmHg 64%
    13:00 +29°C° 0 mm 3 m/s 670 mmHg 64%
    14:00 +28°C° 0.7 mm 2 m/s 669 mmHg 71%
    15:00 +27°C° 0.7 mm 2 m/s 668 mmHg 78%
    16:00 +26°C° 0.7 mm 2 m/s 668 mmHg 84%
    17:00 +25°C° 0.2 mm 1 m/s 668 mmHg 88%
    18:00 +23°C° 0.2 mm 1 m/s 668 mmHg 92%
    19:00 +22°C° 0.2 mm 1 m/s 668 mmHg 95%
    20:00 +22°C° 1 mm 1 m/s 669 mmHg 95%
    21:00 +22°C° 1 mm 1 m/s 669 mmHg 95%
    22:00 +22°C° 1 mm 1 m/s 670 mmHg 95%
    23:00 +20°C° 0.3 mm 2 m/s 670 mmHg 96%

    Mâine, 23 Noiembrie, Sâmbătă

    Timp Temperatura Precipitaţii Vânt Presiune Umiditate
    00:00 +20°C° 0.3 mm 2 m/s 669 mmHg 97%
    01:00 +20°C° 0.3 mm 2 m/s 669 mmHg 97%
    02:00 +20°C° 0 mm 2 m/s 669 mmHg 98%
    03:00 +20°C° 0 mm 1 m/s 669 mmHg 98%
    04:00 +20°C° 0 mm 1 m/s 669 mmHg 98%
    05:00 +20°C° 0 mm 1 m/s 669 mmHg 97%
    06:00 +19°C° 0 mm 0 m/s 670 mmHg 96%
    07:00 +19°C° 0 mm 0 m/s 671 mmHg 95%
    08:00 +21°C° 0.2 mm 1 m/s 671 mmHg 95%
    09:00 +21°C° 0.2 mm 1 m/s 671 mmHg 94%
    10:00 +22°C° 0.2 mm 1 m/s 671 mmHg 93%
    11:00 +23°C° 0.1 mm 1 m/s 671 mmHg 88%
    12:00 +24°C° 0.1 mm 1 m/s 670 mmHg 83%
    13:00 +25°C° 0.1 mm 1 m/s 670 mmHg 77%
    14:00 +25°C° 0.1 mm 2 m/s 670 mmHg 77%
    15:00 +26°C° 0.1 mm 2 m/s 669 mmHg 77%
    16:00 +26°C° 0.1 mm 2 m/s 668 mmHg 77%
    17:00 +24°C° 0.7 mm 2 m/s 669 mmHg 83%
    18:00 +23°C° 0.7 mm 1 m/s 669 mmHg 89%
    19:00 +21°C° 0.7 mm 1 m/s 669 mmHg 96%
    20:00 +21°C° 0 mm 1 m/s 669 mmHg 96%
    21:00 +21°C° 0 mm 1 m/s 669 mmHg 96%
    22:00 +21°C° 0 mm 1 m/s 669 mmHg 97%
    23:00 +20°C° 0.2 mm 1 m/s 669 mmHg 97%

    Poimâine, 24 Noiembrie, Duminică

    Timp Temperatura Precipitaţii Vânt Presiune Umiditate
    00:00 +20°C° 0.2 mm 1 m/s 669 mmHg 97%
    01:00 +18°C° 0.2 mm 0 m/s 669 mmHg 97%
    02:00 +18°C° 0.6 mm 0 m/s 669 mmHg 98%
    03:00 +18°C° 0.6 mm 0 m/s 669 mmHg 98%
    04:00 +20°C° 0.6 mm 1 m/s 669 mmHg 98%
    05:00 +20°C° 0.1 mm 1 m/s 670 mmHg 98%
    06:00 +21°C° 0.1 mm 1 m/s 670 mmHg 98%
    07:00 +21°C° 0.1 mm 1 m/s 671 mmHg 97%
    08:00 +21°C° 0.4 mm 1 m/s 671 mmHg 95%
    09:00 +22°C° 0.4 mm 1 m/s 671 mmHg 94%
    10:00 +21°C° 0.4 mm 2 m/s 671 mmHg 92%
    11:00 +22°C° 0.3 mm 1 m/s 670 mmHg 92%
    12:00 +22°C° 0.3 mm 1 m/s 669 mmHg 93%
    13:00 +22°C° 0.3 mm 1 m/s 669 mmHg 93%
    14:00 +22°C° 0.1 mm 1 m/s 669 mmHg 92%
    15:00 +23°C° 0.1 mm 1 m/s 668 mmHg 90%
    16:00 +21°C° 0.1 mm 0 m/s 668 mmHg 89%
    17:00 +20°C° 0.2 mm 0 m/s 668 mmHg 91%
    18:00 +19°C° 0.2 mm 0 m/s 669 mmHg 93%
    19:00 +19°C° 0.2 mm 0 m/s 669 mmHg 95%
    20:00 +18°C° 0.1 mm 0 m/s 669 mmHg 95%
    21:00 +18°C° 0.1 mm 0 m/s 669 mmHg 95%
    22:00 +20°C° 0.1 mm 1 m/s 670 mmHg 96%
    23:00 +20°C° 0.1 mm 1 m/s 669 mmHg 96%

    25 Noiembrie, Luni

    Timp Temperatura Precipitaţii Vânt Presiune Umiditate
    00:00 +20°C° 0.1 mm 1 m/s 669 mmHg 97%
    01:00 +20°C° 0.1 mm 1 m/s 669 mmHg 97%
    02:00 +20°C° 0.1 mm 1 m/s 669 mmHg 98%
    03:00 +20°C° 0.1 mm 1 m/s 669 mmHg 98%
    04:00 +20°C° 0.1 mm 1 m/s 669 mmHg 98%
    05:00 +20°C° 0.1 mm 1 m/s 669 mmHg 97%
    06:00 +18°C° 0.1 mm 0 m/s 670 mmHg 96%
    07:00 +19°C° 0.1 mm 0 m/s 670 mmHg 95%
    08:00 +22°C° 0.1 mm 1 m/s 670 mmHg 92%
    09:00 +23°C° 0.1 mm 1 m/s 670 mmHg 88%
    10:00 +23°C° 0.1 mm 1 m/s 671 mmHg 85%
    11:00 +25°C° 0.4 mm 1 m/s 670 mmHg 80%
    12:00 +26°C° 0.4 mm 1 m/s 670 mmHg 75%
    13:00 +28°C° 0.4 mm 1 m/s 669 mmHg 70%
    14:00 +27°C° 0.9 mm 1 m/s 669 mmHg 75%
    15:00 +26°C° 0.9 mm 1 m/s 668 mmHg 80%
    16:00 +26°C° 0.9 mm 1 m/s 668 mmHg 85%
    17:00 +24°C° 0.7 mm 1 m/s 668 mmHg 88%
    18:00 +23°C° 0.7 mm 1 m/s 668 mmHg 92%
    19:00 +22°C° 0.7 mm 1 m/s 668 mmHg 95%
    20:00 +21°C° 0.3 mm 1 m/s 669 mmHg 96%
    21:00 +21°C° 0.3 mm 1 m/s 669 mmHg 96%
    22:00 +21°C° 0.3 mm 1 m/s 669 mmHg 97%
    23:00 +21°C° 1.6 mm 1 m/s 669 mmHg 98%

    26 Noiembrie, Marţi

    Timp Temperatura Precipitaţii Vânt Presiune Umiditate
    00:00 +21°C° 1.6 mm 1 m/s 669 mmHg 98%
    01:00 +21°C° 1.6 mm 1 m/s 669 mmHg 98%
    02:00 +21°C° 1.1 mm 1 m/s 669 mmHg 98%
    03:00 +21°C° 1.1 mm 1 m/s 668 mmHg 98%
    04:00 +20°C° 1.1 mm 1 m/s 668 mmHg 98%
    05:00 +20°C° 2.8 mm 1 m/s 669 mmHg 98%
    06:00 +20°C° 2.8 mm 1 m/s 669 mmHg 98%
    07:00 +20°C° 2.8 mm 1 m/s 670 mmHg 98%
    08:00 +21°C° 0.9 mm 1 m/s 670 mmHg 96%
    09:00 +22°C° 0.9 mm 1 m/s 670 mmHg 95%
    10:00 +22°C° 0.9 mm 1 m/s 671 mmHg 93%
    11:00 +24°C° 0.2 mm 1 m/s 670 mmHg 88%
    12:00 +25°C° 0.2 mm 1 m/s 669 mmHg 82%
    13:00 +26°C° 0.2 mm 2 m/s 669 mmHg 76%
    14:00 +26°C° 1.1 mm 2 m/s 668 mmHg 80%
    15:00 +25°C° 1.1 mm 2 m/s 668 mmHg 84%
    16:00 +25°C° 1.1 mm 2 m/s 668 mmHg 88%
    17:00 +24°C° 0.8 mm 1 m/s 668 mmHg 90%
    18:00 +23°C° 0.8 mm 1 m/s 668 mmHg 92%
    19:00 +22°C° 0.8 mm 1 m/s 668 mmHg 94%
    20:00 +21°C° 0.5 mm 1 m/s 669 mmHg 95%
    21:00 +21°C° 0.5 mm 1 m/s 669 mmHg 95%
    22:00 +21°C° 0.5 mm 1 m/s 670 mmHg 96%
    23:00 +21°C° 0.7 mm 1 m/s 669 mmHg 96%

    27 Noiembrie, Miercuri

    Timp Temperatura Precipitaţii Vânt Presiune Umiditate
    00:00 +19°C° 0.7 mm 0 m/s 669 mmHg 97%
    01:00 +18°C° 0.7 mm 0 m/s 669 mmHg 97%
    02:00 +18°C° 0.3 mm 0 m/s 669 mmHg 97%
    03:00 +18°C° 0.3 mm 0 m/s 668 mmHg 97%
    04:00 +18°C° 0.3 mm 0 m/s 668 mmHg 97%
    05:00 +18°C° 0.1 mm 0 m/s 669 mmHg 96%
    06:00 +19°C° 0.1 mm 0 m/s 669 mmHg 96%
    07:00 +21°C° 0.1 mm 1 m/s 670 mmHg 95%
    08:00 +21°C° 0.1 mm 1 m/s 670 mmHg 94%
    09:00 +22°C° 0.1 mm 1 m/s 670 mmHg 93%
    10:00 +22°C° 0.1 mm 1 m/s 670 mmHg 92%
    11:00 +23°C° 0.1 mm 1 m/s 669 mmHg 90%
    12:00 +23°C° 0.1 mm 1 m/s 669 mmHg 88%
    13:00 +23°C° 0.1 mm 2 m/s 668 mmHg 86%
    14:00 +23°C° 0.1 mm 1 m/s 668 mmHg 86%
    15:00 +23°C° 0.1 mm 1 m/s 668 mmHg 86%
    16:00 +23°C° 0.1 mm 1 m/s 667 mmHg 86%
    17:00 +23°C° 0.2 mm 1 m/s 668 mmHg 90%
    18:00 +22°C° 0.2 mm 1 m/s 668 mmHg 93%
    19:00 +21°C° 0.2 mm 1 m/s 668 mmHg 97%
    20:00 +21°C° 0.5 mm 1 m/s 668 mmHg 97%
    21:00 +21°C° 0.5 mm 1 m/s 669 mmHg 98%
    22:00 +21°C° 0.5 mm 1 m/s 669 mmHg 98%
    23:00 +21°C° 0.4 mm 1 m/s 669 mmHg 98%
    Arată mai mult